N5ZPR Weather Reports


Display with metric or nautical units.
time (UTC)temp
F
wind
direction
speed
MPH
gust
MPH
rain 1hr
in
rain 24hr
in
rain mn
in
humidity
%
barometer
mb
20260903191003 89 134 0.0 0.0 0.00 0.00 0.00 66 1010.4
20260903185004 88 186 0.0 0.0 0.00 0.00 0.00 68 1010.7
20260903184003 87 128 0.0 0.0 0.00 0.00 0.00 69 1010.9
20260903183003 87 196 0.0 0.0 0.00 0.00 0.00 70 1010.9
20260903182004 87 155 0.0 0.0 0.00 0.00 0.00 70 1010.9
20260903181003 86 159 0.0 0.0 0.00 0.00 0.00 71 1011.1
20260903180004 87 126 0.0 0.0 0.00 0.00 0.00 70 1011.1
20260903175003 87 147 0.0 0.0 0.00 0.00 0.00 69 1011.2
20260903174004 87 162 0.0 0.0 0.00 0.00 0.00 70 1011.2
20260903173003 88 144 0.0 0.0 0.00 0.00 0.00 69 1011.5
20260903172003 87 150 0.0 0.0 0.00 0.00 0.00 71 1011.5
20260903171003 87 157 0.0 0.0 0.00 0.00 0.00 70 1011.5
20260903170004 86 168 0.0 0.0 0.00 0.00 0.00 72 1011.4
20260903165004 87 123 0.0 0.0 0.00 0.00 0.00 70 1011.6
20260903164003 87 150 0.0 0.0 0.00 0.00 0.00 70 1011.6
20260903163003 86 147 0.0 0.0 0.00 0.00 0.00 71 1011.6
20260903162003 86 153 0.0 0.0 0.00 0.00 0.00 72 1011.6
20260903161004 86 143 1.0 9.0 0.00 0.00 0.00 72 1011.6
20260903160004 85 170 3.0 7.0 0.00 0.00 0.00 75 1011.4
20260903155004 84 0 3.0 9.0 0.00 0.00 0.00 76 1011.4
20260903154004 84 0 1.0 8.0 0.00 0.00 0.00 76 1011.5
20260903153005 83 0 2.0 7.0 0.00 0.00 0.00 78 1011.5
20260903152003 82 0 1.0 7.0 0.00 0.00 0.00 78 1011.6
20260903151003 82 0 3.0 7.0 0.00 0.00 0.00 78 1011.6
20260903150004 82 0 2.0 6.0 0.00 0.00 0.00 80 1011.6
20260903145004 81 0 3.0 7.0 0.00 0.00 0.00 80 1011.6
20260903144003 81 0 2.0 5.0 0.00 0.00 0.00 80 1011.4
20260903143004 81 0 2.0 7.0 0.00 0.00 0.00 79 1011.5
20260903142004 81 0 1.0 7.0 0.00 0.00 0.00 80 1011.3
20260903141004 80 0 3.0 7.0 0.00 0.00 0.00 81 1011.3
20260903140003 79 0 3.0 7.0 0.00 0.00 0.00 82 1011.3
20260903134004 79 0 2.0 5.0 0.00 0.00 0.00 82 1011.3
20260903133003 78 0 3.0 5.0 0.00 0.00 0.00 84 1011.1
20260903132004 78 0 0.0 5.0 0.00 0.00 0.00 84 1011.1
20260903131003 78 0 2.0 3.0 0.00 0.00 0.00 84 1011.1
20260903130004 78 0 0.0 3.0 0.00 0.00 0.00 84 1011.1
20260903125003 78 0 1.0 3.0 0.00 0.00 0.00 85 1011.1
20260903124003 77 0 1.0 3.0 0.00 0.00 0.00 86 1010.9
20260903123004 76 0 0.0 2.0 0.00 0.00 0.00 85 1010.9
20260903122004 77 0 0.0 0.0 0.00 0.00 0.00 85 1010.9
20260903115003 77 0 0.0 3.0 0.00 0.00 0.00 82 1010.9
20260903114004 78 0 0.0 5.0 0.00 0.00 0.00 81 1010.7
20260903113004 77 0 0.0 5.0 0.00 0.00 0.00 83 1010.7
20260903110003 78 0 1.0 3.0 0.00 0.00 0.00 81 1010.6
20260903105003 78 0 0.0 1.0 0.00 0.00 0.00 81 1010.6
20260903104004 78 0 0.0 1.0 0.00 0.00 0.00 79 1010.5
20260903103003 78 0 1.0 3.0 0.00 0.00 0.00 80 1010.5
20260903102004 78 0 0.0 3.0 0.00 0.00 0.00 80 1010.5
20260903100004 77 0 0.0 2.0 0.00 0.00 0.00 83 1010.5
20260903095004 77 0 0.0 2.0 0.00 0.00 0.00 82 1010.5
20260903094003 77 0 0.0 2.0 0.00 0.00 0.00 82 1010.5
20260903093004 77 0 0.0 2.0 0.00 0.00 0.00 82 1010.5
20260903092003 76 0 0.0 1.0 0.00 0.00 0.00 83 1010.5
20260903091004 76 0 0.0 1.0 0.00 0.00 0.00 82 1010.5
20260903090003 76 0 0.0 1.0 0.00 0.00 0.00 82 1010.5
20260903082004 77 0 0.0 2.0 0.00 0.00 0.00 80 1010.7
20260903081004 77 0 0.0 1.0 0.00 0.00 0.00 79 1010.7
20260903080004 78 0 0.0 0.0 0.00 0.00 0.00 79 1010.7
20260903075004 78 0 0.0 0.0 0.00 0.00 0.00 78 1010.7
20260903072003 79 0 0.0 0.0 0.00 0.00 0.00 76 1010.6
20260903071004 79 0 0.0 2.0 0.00 0.00 0.00 76 1010.6
20260903070003 79 0 0.0 1.0 0.00 0.00 0.00 75 1010.6
20260903065004 79 0 0.0 0.0 0.00 0.00 0.00 74 1010.9
20260903064003 80 0 0.0 2.0 0.00 0.00 0.00 73 1010.9
20260903063003 80 0 0.0 1.0 0.00 0.00 0.00 73 1010.9
20260903062003 80 0 0.0 3.0 0.00 0.00 0.00 72 1011.0
20260903061004 81 0 0.0 5.0 0.00 0.00 0.00 72 1011.1
20260903055004 81 0 2.0 3.0 0.00 0.00 0.00 70 1011.3
20260903054004 82 0 1.0 5.0 0.00 0.00 0.00 69 1011.1
20260903053004 82 0 1.0 6.0 0.00 0.00 0.00 69 1011.1
20260903052004 82 0 2.0 6.0 0.00 0.00 0.00 68 1011.1
20260903051004 83 0 1.0 5.0 0.00 0.00 0.00 67 1011.1
20260903050003 83 0 1.0 6.0 0.00 0.00 0.00 67 1011.1
20260903045004 83 0 2.0 6.0 0.00 0.00 0.00 66 1011.1
20260903043003 84 0 2.0 7.0 0.00 0.00 0.00 64 1011.0
20260903041003 85 0 2.0 5.0 0.00 0.00 0.00 64 1011.1
20260903040003 85 0 1.0 8.0 0.00 0.00 0.00 64 1011.1
20260903035003 85 0 3.0 8.0 0.00 0.00 0.00 63 1010.6
20260903034003 86 0 2.0 5.0 0.00 0.00 0.00 62 1010.6
20260903033003 86 0 1.0 8.0 0.00 0.00 0.00 61 1010.6
20260903032004 87 0 2.0 9.0 0.00 0.00 0.00 60 1010.6
20260903031003 87 116 2.0 8.0 0.00 0.00 0.00 59 1010.6
20260903030004 87 130 3.0 9.0 0.00 0.00 0.00 58 1010.6
20260903025004 88 85 3.0 12.0 0.00 0.00 0.00 57 1010.6
20260903024003 88 130 3.0 8.0 0.00 0.00 0.00 57 1010.3
20260903023004 89 109 3.0 9.0 0.00 0.00 0.00 56 1010.3
20260903022003 89 97 4.0 10.0 0.00 0.00 0.00 55 1009.5
20260903021003 89 64 4.0 7.0 0.00 0.00 0.00 53 1009.5
20260903020003 90 125 5.0 10.0 0.00 0.00 0.00 53 1009.5
20260903014004 91 122 3.0 10.0 0.00 0.00 0.00 52 1009.5
20260903013004 91 112 3.0 9.0 0.00 0.00 0.00 52 1009.5
20260903012003 92 134 2.0 7.0 0.00 0.00 0.00 51 1009.5
20260903011004 92 82 3.0 10.0 0.00 0.00 0.00 50 1009.2
20260903005004 94 108 2.0 12.0 0.00 0.00 0.00 43 1009.2
20260903004003 94 54 3.0 12.0 0.00 0.00 0.00 44 1009.2
20260903003004 94 101 4.0 12.0 0.00 0.00 0.00 44 1009.2
20260903002003 95 67 3.0 10.0 0.00 0.00 0.00 44 1009.1
20260903001004 96 98 3.0 12.0 0.00 0.00 0.00 43 1009.1
20260903000004 97 57 3.0 8.0 0.00 0.00 0.00 39 1008.8
20260902233003 98 110 3.0 10.0 0.00 0.00 0.00 38 1008.8
20260902232003 98 37 6.0 12.0 0.00 0.00 0.00 38 1008.8
20260902231004 98 109 3.0 8.0 0.00 0.00 0.00 37 1008.8
20260902230003 99 81 2.0 12.0 0.00 0.00 0.00 37 1008.8
20260902225004 99 88 3.0 7.0 0.00 0.00 0.00 36 1008.8
20260902224004 99 49 3.0 8.0 0.00 0.00 0.00 37 1009.0
20260902223003 99 9 4.0 14.0 0.00 0.00 0.00 37 1008.9
20260902221004 99 61 3.0 10.0 0.00 0.00 0.00 37 1009.9
20260902215004 99 32 7.0 12.0 0.00 0.00 0.00 37 1009.9
20260902214004 100 50 6.0 14.0 0.00 0.00 0.00 37 1009.9
20260902213003 100 26 6.0 12.0 0.00 0.00 0.00 37 1009.9
20260902212003 99 29 4.0 9.0 0.00 0.00 0.00 37 1009.9
20260902211004 100 26 5.0 9.0 0.00 0.00 0.00 36 1009.9
20260902210003 99 43 5.0 8.0 0.00 0.00 0.00 36 1009.9
20260902205003 99 49 2.0 13.0 0.00 0.00 0.00 37 1009.9
20260902204003 99 69 2.0 12.0 0.00 0.00 0.00 38 1010.0
20260902203003 99 347 5.0 18.0 0.00 0.00 0.00 38 1010.2
20260902202003 98 59 7.0 13.0 0.00 0.00 0.00 39 1010.2
20260902201003 98 96 2.0 13.0 0.00 0.00 0.00 40 1010.9
20260902195003 98 27 2.0 12.0 0.00 0.00 0.00 41 1010.9
20260902194004 97 16 8.0 13.0 0.00 0.00 0.00 40 1010.9
20260902193004 98 44 3.0 15.0 0.00 0.00 0.00 41 1011.1
20260902192004 98 11 9.0 18.0 0.00 0.00 0.00 40 1011.5